Torna al catalogo

THORAD AGENA D DEB

AttivoLEO
NORAD 4973·DEBRIS·🇺🇸 United States

Lanciato Apr 8, 1970 da Vandenberg Space Force Base

Loading…

Prossimi Passaggi

TLE

Source: Space-Track
1 04973U 70025GT  26223.65314415  .00000638  00000-0  40591-3 0  9990
2 04973 100.0364  14.3114 0090190 203.3451 156.3606 14.06064954847803

Traccia THORAD AGENA D DEB in tempo reale con AllMySat

Download on the App Store